Centralia, IL

12:49 AM CDT on July 22, 2017 (GMT -0500)
Centralia Municipal

Weather History for KENL - November, 2012

Change the Weather History Date:

Saturday, November 3, 2012

  Actual Average (KSLO) Record (KSLO)
Temperature  
Mean Temperature 46 °F -  
Max Temperature 54 °F 59 °F 80 °F (1987)
Min Temperature 38 °F 39 °F 17 °F (1991)
Degree Days  
Heating Degree Days 18    
Moisture  
Dew Point 36 °F    
Average Humidity 68    
Maximum Humidity 92    
Minimum Humidity 51    
Precipitation  
Precipitation 0.00 in - - ()
Sea Level Pressure  
Sea Level Pressure 30.08 in    
Wind  
Wind Speed 8 mph (NE)    
Max Wind Speed 14 mph    
Max Gust Speed 21 mph    
Visibility 10 miles    
Events      
Averages and records for this station are not official NWS values.
T = Trace of Precipitation, MM = Missing Value Source: NWS Daily Summary

Daily Weather History Graph

Daily Weather History Graph

Search for Another Location

Airport or City:

Trip Planner

Search our weather history database for the weather conditions in past years. The results will help you decide how hot, cold, wet, or windy it might be!

Date:

Astronomy

Nov. 03, 2012 Rise Set
Actual Time 7:25 AM CDT 5:53 PM CDT
Civil Twilight 6:57 AM CDT 6:21 PM CDT
Nautical Twilight 6:26 AM CDT 6:52 PM CDT
Astronomical Twilight 5:55 AM CDT 7:23 PM CDT
Moon 9:35 PM CDT (11/3) 11:28 AM CDT (11/3)
Length of Visible Light 11h 23m
Length of Day
10h 28m
Waning Gibbous, 80% of the Moon is Illuminated
Nov 3
Waning Gibbous
Nov 6
Last Quarter
Nov 13
New
Nov 20
First Quarter
Nov 28
Full

Hourly Weather History & Observations

Time (CDT) Temp. Windchill Dew Point Humidity Pressure Visibility Wind Dir Wind Speed Gust Speed Precip Events Conditions
12:15 AM 44.6 °F 42.2 °F 35.6 °F 71% 30.08 in 10.0 mi ENE 4.6 mph - N/A   Clear
12:35 AM 44.2 °F 41.0 °F 35.6 °F 72% 30.08 in 10.0 mi ENE 5.8 mph - N/A   Clear
12:55 AM 44.6 °F 40.7 °F 34.9 °F 69% 30.07 in 10.0 mi ENE 6.9 mph - N/A   Clear
1:15 AM 44.6 °F 41.4 °F 34.7 °F 68% 30.07 in 10.0 mi East 5.8 mph - N/A   Clear
1:35 AM 44.6 °F 41.4 °F 34.5 °F 68% 30.06 in 10.0 mi East 5.8 mph - N/A   Clear
1:55 AM 44.6 °F 40.7 °F 33.8 °F 66% 30.05 in 10.0 mi East 6.9 mph - N/A   Clear
2:15 AM 45.0 °F 41.2 °F 33.3 °F 64% 30.05 in 10.0 mi East 6.9 mph - N/A   Clear
2:35 AM 44.8 °F 41.0 °F 33.3 °F 64% 30.04 in 10.0 mi East 6.9 mph - N/A   Clear
2:55 AM 45.0 °F 41.2 °F 32.7 °F 62% 30.05 in 10.0 mi East 6.9 mph - N/A   Scattered Clouds
3:15 AM 45.1 °F 41.4 °F 32.9 °F 62% 30.03 in 10.0 mi East 6.9 mph - N/A   Mostly Cloudy
3:35 AM 45.0 °F 40.6 °F 32.7 °F 62% 30.03 in 10.0 mi East 8.1 mph - N/A   Scattered Clouds
3:55 AM 45.5 °F 41.3 °F 32.5 °F 61% 30.03 in 10.0 mi East 8.1 mph - N/A   Scattered Clouds
4:15 AM 45.9 °F 41.7 °F 32.9 °F 61% 30.03 in 10.0 mi East 8.1 mph - N/A   Mostly Cloudy
4:35 AM 45.9 °F 41.7 °F 32.7 °F 60% 30.03 in 10.0 mi East 8.1 mph - N/A   Overcast
4:55 AM 45.5 °F 41.3 °F 32.9 °F 61% 30.05 in 10.0 mi East 8.1 mph 16.1 mph N/A   Mostly Cloudy
5:15 AM 44.8 °F 39.9 °F 33.1 °F 64% 30.05 in 10.0 mi ENE 9.2 mph - N/A   Scattered Clouds
5:35 AM 44.6 °F 39.7 °F 32.9 °F 64% 30.06 in 10.0 mi ENE 9.2 mph - N/A   Scattered Clouds
5:55 AM 44.6 °F 40.2 °F 33.1 °F 64% 30.06 in 10.0 mi East 8.1 mph - N/A   Mostly Cloudy
6:15 AM 44.6 °F 40.2 °F 33.1 °F 64% 30.06 in 10.0 mi East 8.1 mph - N/A   Overcast
6:35 AM 44.2 °F 39.2 °F 33.1 °F 65% 30.06 in 10.0 mi ENE 9.2 mph - N/A   Scattered Clouds
6:55 AM 43.9 °F 39.3 °F 33.1 °F 66% 30.06 in 10.0 mi East 8.1 mph - N/A   Clear
7:15 AM 43.9 °F 39.9 °F 33.1 °F 66% 30.06 in 10.0 mi East 6.9 mph - N/A   Clear
7:35 AM 43.7 °F 39.1 °F 33.3 °F 67% 30.06 in 10.0 mi East 8.1 mph - N/A   Clear
7:55 AM 43.9 °F 39.3 °F 33.1 °F 66% 30.06 in 10.0 mi East 8.1 mph - N/A   Clear
8:15 AM 44.6 °F 39.7 °F 33.3 °F 64% 30.07 in 10.0 mi East 9.2 mph - N/A   Scattered Clouds
8:35 AM 45.9 °F 40.4 °F 34.0 °F 63% 30.07 in 10.0 mi East 11.5 mph - N/A   Scattered Clouds
8:55 AM 46.6 °F - 33.8 °F 61% 30.06 in 10.0 mi East 11.5 mph 17.3 mph N/A   Mostly Cloudy
9:15 AM 47.7 °F - 33.8 °F 59% 30.05 in 10.0 mi East 12.7 mph 18.4 mph N/A   Mostly Cloudy
9:35 AM 48.2 °F - 33.6 °F 57% 30.05 in 10.0 mi East 8.1 mph 19.6 mph N/A   Mostly Cloudy
9:55 AM 49.5 °F - 34.3 °F 56% 30.05 in 10.0 mi East 9.2 mph 17.3 mph N/A   Scattered Clouds
10:15 AM 51.1 °F - 34.9 °F 54% 30.05 in 10.0 mi ENE 10.4 mph 17.3 mph N/A   Mostly Cloudy
10:35 AM 50.7 °F - 34.7 °F 54% 30.05 in 10.0 mi East 9.2 mph - N/A   Overcast
10:55 AM 51.8 °F - 35.1 °F 53% 30.03 in 10.0 mi East 11.5 mph 20.7 mph N/A   Overcast
11:15 AM 52.9 °F - 35.4 °F 52% 30.03 in 10.0 mi East 12.7 mph 20.7 mph N/A   Scattered Clouds
11:35 AM 53.2 °F - 36.0 °F 52% 30.02 in 10.0 mi ENE 13.8 mph 19.6 mph N/A   Mostly Cloudy
11:55 AM 54.1 °F - 36.1 °F 51% 30.03 in 10.0 mi ENE 10.4 mph 16.1 mph N/A   Overcast
12:15 PM 53.4 °F - 36.7 °F 53% 30.03 in 10.0 mi ENE 10.4 mph - N/A   Overcast
12:35 PM 51.4 °F - 37.9 °F 60% 30.03 in 10.0 mi NE 10.4 mph - N/A   Overcast
12:55 PM 50.7 °F - 38.1 °F 62% 30.03 in 10.0 mi NNE 9.2 mph - N/A   Overcast
1:15 PM 50.0 °F - 38.3 °F 64% 30.03 in 10.0 mi NE 11.5 mph - N/A   Overcast
1:35 PM 49.1 °F - 37.8 °F 65% 30.03 in 10.0 mi NE 9.2 mph - N/A   Overcast
1:55 PM 49.1 °F - 37.6 °F 64% 30.04 in 10.0 mi NNE 8.1 mph - N/A   Overcast
2:15 PM 49.1 °F - 37.2 °F 64% 30.03 in 10.0 mi ENE 12.7 mph 16.1 mph N/A   Overcast
2:35 PM 48.9 °F - 36.5 °F 62% 30.04 in 10.0 mi NE 8.1 mph 16.1 mph N/A   Overcast
2:55 PM 49.3 °F - 36.9 °F 62% 30.04 in 10.0 mi NE 8.1 mph - N/A   Overcast
3:15 PM 49.5 °F - 37.0 °F 62% 30.05 in 10.0 mi NE 8.1 mph - N/A   Overcast
3:35 PM 49.6 °F - 37.0 °F 62% 30.05 in 10.0 mi NNE 9.2 mph - N/A   Overcast
3:55 PM 49.6 °F - 37.0 °F 62% 30.06 in 10.0 mi NNE 9.2 mph - N/A   Overcast
4:15 PM 49.1 °F - 37.9 °F 65% 30.07 in 10.0 mi NNE 9.2 mph - N/A   Overcast
4:35 PM 48.0 °F - 38.3 °F 69% 30.08 in 10.0 mi NNE 9.2 mph - N/A   Overcast
4:55 PM 47.1 °F - 37.6 °F 69% 30.10 in 10.0 mi NNE 10.4 mph 18.4 mph N/A   Overcast
5:15 PM 47.3 °F - 38.3 °F 71% 30.10 in 10.0 mi NNE 10.4 mph - N/A   Overcast
5:35 PM 46.8 °F - 37.8 °F 71% 30.10 in 10.0 mi NNE 8.1 mph - N/A   Overcast
5:55 PM 46.8 °F - 37.8 °F 71% 30.10 in 10.0 mi North 5.8 mph - N/A   Overcast
6:15 PM 46.4 °F 42.4 °F 37.6 °F 71% 30.11 in 10.0 mi North 8.1 mph - N/A   Overcast
6:35 PM 46.4 °F 41.1 °F 37.8 °F 72% 30.11 in 10.0 mi North 11.5 mph - N/A   Overcast
6:55 PM 45.9 °F 41.7 °F 38.5 °F 75% 30.12 in 10.0 mi North 8.1 mph - N/A   Overcast
7:15 PM 45.5 °F 41.3 °F 38.7 °F 77% 30.13 in 10.0 mi North 8.1 mph - N/A   Overcast
7:35 PM 45.5 °F 43.2 °F 38.7 °F 77% 30.13 in 10.0 mi NNE 4.6 mph - N/A   Overcast
7:55 PM 45.5 °F 41.3 °F 38.5 °F 76% 30.13 in 10.0 mi North 8.1 mph - N/A   Overcast
8:15 PM 44.4 °F 40.0 °F 38.5 °F 80% 30.14 in 10.0 mi North 8.1 mph - N/A   Mostly Cloudy
8:35 PM 43.7 °F 40.3 °F 38.5 °F 82% 30.15 in 10.0 mi North 5.8 mph - N/A   Clear
8:55 PM 42.8 °F 38.6 °F 38.3 °F 84% 30.16 in 10.0 mi North 6.9 mph - N/A   Clear
9:15 PM 42.3 °F 38.6 °F 37.9 °F 85% 30.16 in 10.0 mi North 5.8 mph - N/A   Clear
9:35 PM 41.9 °F 39.0 °F 37.6 °F 85% 30.16 in 10.0 mi NNE 4.6 mph - N/A   Clear
9:55 PM 41.2 °F 38.2 °F 37.4 °F 86% 30.17 in 10.0 mi NNE 4.6 mph - N/A   Clear
10:15 PM 40.6 °F 38.6 °F 37.2 °F 88% 30.17 in 7.0 mi NNE 3.5 mph - N/A   Clear
10:35 PM 40.3 °F 37.1 °F 37.0 °F 88% 30.17 in 7.0 mi NNE 4.6 mph - N/A   Clear
10:55 PM 39.7 °F 36.5 °F 36.9 °F 89% 30.17 in 7.0 mi NNE 4.6 mph - N/A   Clear
11:15 PM 39.6 °F 35.4 °F 37.0 °F 91% 30.17 in 7.0 mi North 5.8 mph - N/A   Clear
11:35 PM 39.2 °F 35.0 °F 36.5 °F 90% 30.16 in 5.0 mi North 5.8 mph - N/A   Clear
11:55 PM 38.7 °F 35.2 °F 36.5 °F 92% 30.16 in 5.0 mi North 4.6 mph - N/A   Clear